User: anonymous   Login
Location: Mount Wilson Observatory
(34.2257°N, 118.0571°W)
Time: 04:15:04
(UTC-08:00)
Language:

ATLAS 3B CENTAUR R/B - Orbit

View from above orbital plane
View from above orbital plane
View from above satellite
View from above satellite

Ground track
Ground track

The orbit data is extracted from the following two-line orbital elements,

1 28118U 03057B   15025.12162546  .00059880  00000-0  12900-2 0   260
2 28118 028.1406 039.9724 3721535 112.1320 331.1908 08.04332895213084
Epoch (UTC): 25 January 2015 02:55:08
Eccentricity: 0.3721535
inclination: 28.1406°
perigee height: 228 km
apogee height: 8060 km
right ascension of ascending node: 39.9724°
argument of perigee: 112.1320°
revolutions per day: 8.04332895
mean anomaly at epoch: 331.1908°
orbit number at epoch: 21308

The dashed part of the orbit path shows where the satellite is in the earth's shadow,  

DLR